Location: Zagreb
(45.8000°N, 16.0000°E)
Time: 00:19:50
(UTC+02:00)

Envisat - Pass Details

Date: 24 April 2024
Orbit: 762 x 764 km, 98.3° (Epoch: 27 May)

Event Time Altitude Azimuth Distance (km) Brightness Sun altitude
Rises 05:05:28 0° 7° (N) 3,239 6.8 -8.6°
Reaches altitude 10° 05:07:53 10° 0° (N) 2,309 5.9 -8.2°
Maximum altitude 05:12:37 40° 292° (WNW) 1,112 3.6 -7.5°
Drops below altitude 10° 05:17:19 10° 224° (SW) 2,293 4.9 -6.7°
Enters shadow 05:18:23 - 220° (SW) 2,698 5.3 -6.6°
